Location: Chmeln�
(49.6483°N, 14.9871°E)
Time: 02:21:14
(UTC+00:00)

Resurs 1-3 - Pass Details

Date: 18 September 2020
Orbit: 630 x 632 km, 97.9° (Epoch: 24 October)

Event Time Altitude Azimuth Distance (km) Brightness Sun altitude
Exits shadow 18:23:50 20° 118° (ESE) 1,473 4.9 -13.2°
Maximum altitude 18:26:13 34° 67° (ENE) 1,042 4.3 -13.5°
Drops below altitude 10° 18:30:12 10° 2° (N) 2,026 6.4 -14.1°
Sets 18:32:33 0° 354° (N) 2,939 7.4 -14.5°
